{"data":{"norad_id":64064,"intl_designator":"2025-107A","name":"STARLINK-11741 [DTC]","alt_names":[],"object_type":"PAYLOAD","status":"ACTIVE","operator":null,"country":"US","launch_date":"2025-05-21","launch_site_code":"AFETR","launch_vehicle":null,"mission":null,"orbit_class":"UNKNOWN","rcs_meters":null,"size_class":null,"mass_kg":null,"dimensions":null,"purposes":["comms"],"wikipedia_slug":null,"has_3d_model":false,"image_url":null,"decayed_at":null,"tle_current":{"epoch":"2026-05-24T23:59:40.159104Z","epoch_age_seconds":85191,"freshness":"FRESH","line1":"1 64064U 25107A   26144.99977036  .00189265  00000+0  14438-2 0  9994","line2":"2 64064  43.0014 358.8022 0001447 276.4108  83.6594 15.70862468 59293","mean_motion":15.70862468,"eccentricity":0.0001447,"inclination_deg":43.0014,"raan_deg":358.8022,"arg_perigee_deg":276.4108,"mean_anomaly_deg":83.6594,"bstar":0.0014438,"rev_number":5929,"period_min":91.669387316471,"perigee_km":355.45635261792,"apogee_km":357.40533655214,"semimajor_km":6734.567844585,"source":"CELESTRAK","updated_at":"2026-05-25T13:38:20.257183Z"}}}